Weather History for Worland, WY

Change the Weather History Date:

Friday, May 24, 2013

  Actual Average Record
Temperature  
Mean Temperature 61 °F 58 °F  
Max Temperature 78 °F 72 °F 91 °F (1967)
Min Temperature 44 °F 43 °F 30 °F (2002)
Degree Days  
Heating Degree Days 4 7  
Month to date heating degree days 195 262  
Since 1 July heating degree days 7374 7729  
Cooling Degree Days 0 0  
Month to date cooling degree days 17 0  
Year to date cooling degree days 17 1  
Growing Degree Days 10 (Base 50)    
Moisture  
Dew Point 32 °F    
Average Humidity 49    
Maximum Humidity 92    
Minimum Humidity 6    
Precipitation  
Precipitation 0.00 in 0.05 in 0.48 in (1996)
Month to date precipitation 0.78 1.08  
Year to date precipitation 2.35 2.82  
Sea Level Pressure  
Sea Level Pressure 29.81 in    
Wind  
Wind Speed 8 mph (SW)    
Max Wind Speed 21 mph    
Max Gust Speed 29 mph    
Visibility 10 miles    
Events      
T = Trace of Precipitation, MM = Missing Value Source: NWS Daily Summary

Daily Weather History Graph

Daily Weather History Graph

Search for Another Location

Airport:

Trip Planner

Search our weather history database for the weather conditions in past years. The results will help you decide how hot, cold, wet, or windy it might be!

Date:

Astronomy

May. 24, 2013 Rise Set
Actual Time 5:37 AM MDT 8:40 PM MDT
Civil Twilight 5:02 AM MDT 9:15 PM MDT
Nautical Twilight 4:18 AM MDT 9:59 PM MDT
Astronomical Twilight 3:25 AM MDT 10:52 PM MDT
Moon 8:25 PM MDT (5/24) 5:13 AM MDT (5/24)
Length of Visible Light 16h 12m
Length of Day
15h 03m
Full, 100% of the Moon is Illuminated
May 24
Full
May 24
Full
May 31
Last Quarter
Jun 8
New
Jun 16
First Quarter

Hourly Weather History & Observations

Time (MDT) Temp. Dew Point Humidity Pressure Visibility Wind Dir Wind Speed Gust Speed Precip Events Conditions
12:53 AM 55.9 °F 48.9 °F 77% 29.67 in 10.0 mi NNW 6.9 mph - N/A   Mostly Cloudy
1:53 AM 55.0 °F 48.0 °F 77% 29.68 in 10.0 mi NW 4.6 mph - N/A   Scattered Clouds
2:53 AM 51.1 °F 46.9 °F 86% 29.68 in 10.0 mi SSE 4.6 mph - N/A   Clear
3:53 AM 51.1 °F 46.9 °F 86% 29.70 in 10.0 mi South 8.1 mph - N/A   Clear
4:53 AM 48.0 °F 45.0 °F 89% 29.73 in 10.0 mi Calm Calm - N/A   Clear
5:53 AM 45.0 °F 43.0 °F 93% 29.79 in 10.0 mi Calm Calm - N/A   Clear
6:41 AM 51.8 °F 46.4 °F 82% 29.91 in 10.0 mi NNW 3.5 mph - N/A   Overcast
6:48 AM 53.6 °F 46.4 °F 77% 29.91 in 10.0 mi North 4.6 mph - N/A   Overcast
6:53 AM 54.0 °F 46.0 °F 75% 29.82 in 10.0 mi North 5.8 mph - N/A   Mostly Cloudy
7:53 AM 57.0 °F 44.1 °F 62% 29.84 in 10.0 mi NNE 10.4 mph - N/A   Scattered Clouds
8:53 AM 60.1 °F 44.1 °F 55% 29.86 in 10.0 mi North 10.4 mph - N/A   Clear
9:53 AM 62.1 °F 39.9 °F 44% 29.88 in 10.0 mi North 10.4 mph - N/A   Clear
10:53 AM 64.0 °F 32.0 °F 30% 29.88 in 10.0 mi Calm Calm - N/A   Clear
11:53 AM 66.9 °F 30.9 °F 26% 29.88 in 10.0 mi NE 5.8 mph - N/A   Clear
12:53 PM 68.0 °F 26.1 °F 21% 29.86 in 10.0 mi Variable 6.9 mph - N/A   Clear
1:53 PM 71.1 °F 26.1 °F 19% 29.84 in 10.0 mi ESE 9.2 mph 18.4 mph N/A   Clear
2:53 PM 73.9 °F 25.0 °F 16% 29.82 in 10.0 mi SE 8.1 mph 17.3 mph N/A   Clear
3:53 PM 75.0 °F 3.9 °F 6% 29.79 in 10.0 mi Variable 6.9 mph - N/A   Clear
4:53 PM 75.9 °F 7.0 °F 7% 29.79 in 10.0 mi South 17.3 mph 24.2 mph N/A   Clear
5:53 PM 75.9 °F 12.0 °F 9% 29.79 in 10.0 mi SSW 17.3 mph 27.6 mph N/A   Clear
6:53 PM 75.9 °F 10.0 °F 8% 29.77 in 10.0 mi SSW 13.8 mph - N/A   Clear
7:53 PM 73.0 °F 14.0 °F 11% 29.78 in 10.0 mi South 10.4 mph - N/A   Clear
8:53 PM 60.1 °F 25.0 °F 26% 29.81 in 10.0 mi SSW 6.9 mph - N/A   Clear
9:53 PM 57.0 °F 21.0 °F 25% 29.83 in 10.0 mi South 8.1 mph - N/A   Clear
10:53 PM 57.0 °F 27.0 °F 32% 29.84 in 10.0 mi West 10.4 mph - N/A   Clear
11:53 PM 52.0 °F 25.0 °F 35% 29.84 in 10.0 mi SW 3.5 mph - N/A   Clear